Flag for United Kingdom Weather past 2 weeks in Worcester, England, United Kingdom

Now
55 °F

Cool.


Feels Like: 52 °F
Forecast: 42 / 55 °F
Wind: 9 mph from Southwest

Location: Pershore

Current Time: Oct 20, 2014 at 10:59:02 AM

Latest Report: Oct 20, 2014 at 10:00 AM


Visibility: 17 mi

Pressure: 30.01 "Hg

Humidity: 89%

Dew point: 52 °F

Location of WorcesterLocation

Historic Weather in Worcester — Graph

°F

Worcester temperature yesterday

Maximum temperature yesterday: 65 °F (at 1:00 PM)
Minimum temperature yesterday: 56 °F (at 8:00 PM)
Average temperature yesterday: 60 °F

Past Weeks' High & Low Weather Summary

 TemperatureHumidityPressure
High65 °F (Oct 18, 2:00 PM)100% (Oct 16, 1:00 AM)30.16 "Hg (Oct 16, 1:00 AM)
Low36 °F (Oct 12, 4:00 AM)51% (Oct 7, 3:00 PM)29.23 "Hg (Oct 8, 3:00 PM)
Average54 °F87%29.67 "Hg
* Reported Oct 5 9:00 AM — Oct 20 9:00 AM, Worcester, Weather by CustomWeather, © 2014

Note: Actual official high and low records may vary slightly from our data, if they occured in-between our weather recording intervals... More about our weather records

Advertising

Worcester weather history for previous 24 hours

 ConditionsComfort  
Time TempWeatherWind HumidityBarometerVisibility
9:00 AM
Oct 20
53 °FCool.10 mph91%30.01 "Hg12 mi
8:00 AM51 °FCool.7 mph94%30.00 "Hg11 mi
7:00 AM52 °FCool.9 mph93%29.99 "Hg12 mi
6:00 AM51 °FCool.5 mph92%30.00 "Hg22 mi
4:00 AM53 °FCool.6 mph90%30.00 "Hg22 mi
1:00 AM56 °FCool.8 mph90%29.99 "Hg16 mi
12:00 AM56 °FCool.9 mph88%29.98 "Hg18 mi
11:00 PM
Oct 19
56 °FCool.8 mph86%29.96 "Hg16 mi
10:00 PM56 °FCool.10 mph84%29.95 "Hg14 mi
9:00 PM56 °FCool.8 mph83%29.93 "Hg15 mi
8:00 PM56 °FCool.13 mph85%29.90 "Hg19 mi
7:00 PM58 °FCool.15 mph77%29.90 "Hg19 mi
6:00 PM59 °FCool.14 mph78%29.90 "Hg16 mi
5:00 PM61 °FCool.13 mph72%29.88 "Hg11 mi
4:00 PM62 °FCool.18 mph68%29.87 "Hg11 mi
3:00 PM64 °FMild.17 mph64%29.87 "Hg14 mi
2:00 PM65 °FMild.16 mph65%29.86 "Hg17 mi
1:00 PM65 °FMild.17 mph63%29.86 "Hg10 mi
12:00 PM63 °FMild.15 mph72%29.87 "Hg14 mi
11:00 AM62 °FCool.15 mph74%29.85 "Hg11 mi
10:00 AM62 °FCool.17 mph74%29.67 "Hg7 mi
Weather by CustomWeather, © 2014

See weather overviewHow to use our weather pages